Flag for Russia Weather past 2 weeks in Pyatigorsk, Russia

Now
91 °F

Clear.


Feels Like: 88 °F
Forecast: 56 / 90 °F
Wind: 13 mph from Northwest

Location: Mineral'Nye Vody

Current Time: Sep 2, 2015 at 4:25:14 PM

Latest Report: Sep 2, 2015 at 4:00 PM


Visibility: N/A

Pressure: 29.95 "Hg (28.22 "Hg at 533m altitude)

Humidity: 18%

Dew point: 43 °F

Location of PyatigorskLocation

Historic Weather in Pyatigorsk — Graph

°F

Pyatigorsk temperature yesterday

Maximum temperature yesterday: 86 °F (at 4:30 PM)
Minimum temperature yesterday: 52 °F (at 5:00 AM)
Average temperature yesterday: 72 °F

Past Weeks' High & Low Weather Summary

 TemperatureHumidityPressure
High91 °F (Aug 19, 2:00 PM)100% (Aug 24, 3:30 AM)30.18 "Hg (Aug 24, 3:30 AM)
Low46 °F (Aug 29, 5:30 AM)14% (Aug 30, 4:00 PM)29.74 "Hg (Aug 18, 3:00 PM)
Average70 °F59%30.02 "Hg
* Reported Aug 18 3:00 PM — Sep 2 3:00 PM, Pyatigorsk, Weather by CustomWeather, © 2015

Note: Actual official high and low records may vary slightly from our data, if they occured in-between our weather recording intervals... More about our weather records

Advertising

Pyatigorsk weather history for previous 24 hours

 ConditionsComfort  
Time TempWeatherWind HumidityBarometerVisibility
3:00 PM
Wed, Sep 2
90 °FClear.8 mph22%29.95 "HgN/A
2:30 PM91 °FClear.3 mph21%29.98 "HgN/A
2:00 PM91 °FClear.6 mph21%29.98 "HgN/A
1:30 PM90 °FClear.3 mph22%29.98 "HgN/A
1:00 PM90 °FClear.6 mph22%29.98 "HgN/A
12:30 PM90 °FClear.8 mph22%29.98 "HgN/A
12:00 PM88 °FClear.8 mph24%30.01 "HgN/A
11:30 AM90 °FClear.3 mph24%30.01 "HgN/A
11:00 AM88 °FClear.6 mph25%30.01 "HgN/A
10:30 AM86 °FClear.8 mph29%30.04 "HgN/A
10:00 AM84 °FClear.8 mph33%30.04 "HgN/A
9:30 AM81 °FClear.8 mph34%30.04 "HgN/A
9:00 AM79 °FClear.8 mph37%30.04 "HgN/A
8:30 AM75 °FClear.10 mph44%30.07 "HgN/A
8:00 AM73 °FClear.10 mph47%30.07 "HgN/A
7:00 AM66 °FClear.8 mph64%30.07 "HgN/A
6:30 AM64 °FClear.8 mph68%30.07 "HgN/A
6:00 AM61 °FClear.8 mph72%30.07 "HgN/A
5:30 AM61 °FClear.10 mph72%30.04 "HgN/A
5:00 AM63 °FClear.8 mph73%30.04 "HgN/A
4:30 AM64 °FClear.8 mph68%30.07 "HgN/A
4:00 AM63 °FClear.6 mph73%30.07 "HgN/A
3:30 AM63 °FClear.8 mph73%30.07 "HgN/A
3:00 AM66 °FClear.6 mph64%30.07 "HgN/A
2:30 AM66 °FClear.8 mph64%30.07 "HgN/A
2:00 AM66 °FClear.8 mph64%30.07 "HgN/A
1:30 AM66 °FClear.6 mph64%30.07 "HgN/A
12:30 AM68 °FClear.8 mph56%30.07 "HgN/A
12:00 AM68 °FClear.6 mph56%30.07 "HgN/A
11:30 PM
Tue, Sep 1
68 °FClear.8 mph56%30.07 "HgN/A
11:00 PM70 °FClear.10 mph53%30.07 "HgN/A
10:30 PM72 °FClear.8 mph50%30.07 "HgN/A
10:00 PM70 °FClear.6 mph53%30.04 "HgN/A
9:30 PM72 °FClear.6 mph47%30.07 "HgN/A
9:00 PM73 °FClear.8 mph44%30.07 "HgN/A
8:30 PM73 °FClear.6 mph41%30.07 "HgN/A
8:00 PM73 °FClear.8 mph41%30.04 "HgN/A
7:30 PM77 °FClear.8 mph34%30.04 "HgN/A
7:00 PM79 °FClear.10 mph32%30.04 "HgN/A
6:30 PM81 °FClear.15 mph30%30.04 "HgN/A
6:00 PM82 °FClear.20 mph26%30.01 "HgN/A
5:30 PM84 °FClear.20 mph25%30.01 "HgN/A
5:00 PM84 °FClear.22 mph25%30.01 "HgN/A
4:30 PM86 °FClear.20 mph24%30.01 "HgN/A
4:00 PM84 °FClear.20 mph25%30.01 "HgN/A
Weather by CustomWeather, © 2015

See weather overviewHow to use our weather pages